TIANWANG 1A (TW-1A) is no longer on orbit TIANWANG 1A (TW-1A) is classified as:
1 40928U 15051D 22363.79982108 .09201092 21690-5 85924-3 0 9992 2 40928 96.9993 28.5009 0003467 313.2323 142.4476 16.38834510408965